Weather in Voronezh

Russia / Voronezh Oblast     51°39′38″N   39°12′00″E
В апреле 2022 года жителям России запретили посещать сайт meteo.paraplan.net по решению Генеральной прокуратуры. Аудитория сайта уменьшилась в 10 раз. Владельцы сайта не видят смысла в поддержке погодного сервера в таких условиях. Сайт будет закрыт в октябре.
temp.,
°C
wind,
m/s
gust,
m/s
humid.,
%
clouds,
%
prec.,
mm/h
press.,
hPa
HPBL,
m
26 september, mon
mon2600:00+9wsw31087100 0.1 1011610
03:00+8w4127687 0.1 1012681
06:00+9wsw41073100 0.0 1012813
09:00+10w4961100 0.0 10131225
12:00+12w4953100 0.0 10141470
15:00+14w4846100 0.0 10141591
18:00+13wsw1356100 0.0 1014117
21:00+12ssw2463100 0.0 1015252
27 september, tue
tue2700:00+10sse2484100 0.7 1014262
03:00+10se2689100 2.9 1013320
06:00+9e3893100 3.4 1011359
09:00+10se3795100 5.4 1009271
12:00+12s1492100 0.9 1009205
15:00+14nw1184100 0.9 1008303
18:00+13sse2697100 1.9 1008326
21:00+12sse4996100 6.2 1007448
28 september, wed
wed2800:00+12sse3994100 1.3 1006423
03:00+12se3896100 5.1 1005340
06:00+12sse4996100 4.3 1003384
09:00+12sse399374 5.3 1003422
12:00+15s3888100 0.3 1002611
15:00+17ssw377662 0.4 1002855
18:00+14sw39855 0.4 1003469
21:00+14wsw4988100 0.4 1005524
29 september, thu
thu2900:00+12w4987100 0.0 1007572
03:00+11w488945 0.0 1009508
06:00+11w378117 0.0 1010539
09:00+12wnw35783 0.0 1012424
12:00+15wnw356330 0.0 1013898
15:00+16wnw345897 0.0 10141276
18:00+15nw235982 0.0 1016537
21:00+13n1166100 0.0 101711
30 september, fri
fri3000:00+12wsw0072100 0.0 101810
03:00+12s0074100 0.0 101910
06:00+11e117797 0.0 102011
09:00+13se226699 0.0 1021259
12:00+17sse225332 0.0 1022795
15:00+18sse224661 0.0 10211001
18:00+16sse225696 0.0 102231
21:00+14sse2463100 0.0 102389